This is the latest recevied weather packets stored in our database for station/object LW9ERO-3. If no packets are shown the sender has not sent any weather packets the latest 10 day(s).
| Time | Temp. | Humidity | Pressure | Rain* | Wind** | Luminosity | Snow |
|---|---|---|---|---|---|---|---|
| 1787930283 | 20° C | 42% | 1010.9 hPa | 0 mm | - | - | - |
| 1787929743 | 19.44° C | 43% | 1010.8 hPa | 0 mm | - | - | - |
| 1787929203 | 19.44° C | 43% | 1010.8 hPa | 0 mm | - | - | - |
| 1787928844 | 19.44° C | 44% | 1010.8 hPa | 0 mm | - | - | - |
| 1787928303 | 18.89° C | 47% | 1010.7 hPa | 0 mm | - | - | - |
| 1787927763 | 18.33° C | 47% | 1010.9 hPa | 0 mm | - | - | - |
| 1787927223 | 18.33° C | 49% | 1010.8 hPa | 0 mm | - | - | - |
| 1787926683 | 18.33° C | 52% | 1010.9 hPa | 0 mm | - | - | - |
| 1787926144 | 17.78° C | 50% | 1011 hPa | 0 mm | - | - | - |
| 1787925603 | 17.22° C | 51% | 1011 hPa | 0 mm | - | - | - |
| 1787925243 | 17.22° C | 52% | 1011 hPa | 0 mm | - | - | - |
| 1787924703 | 16.67° C | 55% | 1010.9 hPa | 0 mm | - | - | - |
| 1787924163 | 16.67° C | 56% | 1011 hPa | 0 mm | - | - | - |
| 1787923623 | 16.11° C | 59% | 1010.8 hPa | 0 mm | - | - | - |
| 1787923084 | 15.56° C | 61% | 1010.9 hPa | 0 mm | - | - | - |
| 1787922543 | 15° C | 63% | 1010.7 hPa | 0 mm | - | - | - |
| 1787922004 | 14.44° C | 69% | 1010.6 hPa | 0 mm | - | - | - |
| 1787921643 | 13.89° C | 73% | 1010.6 hPa | 0 mm | - | - | - |
| 1787921103 | 13.33° C | 82% | 1010.5 hPa | 0 mm | - | - | - |
| 1787920563 | 12.78° C | 88% | 1010.2 hPa | 0 mm | - | - | - |
| 1787920024 | 12.22° C | 90% | 1010.2 hPa | 0 mm | - | - | - |
| 1787919483 | 11.67° C | 91% | 1010.2 hPa | 0 mm | - | - | - |
| 1787918944 | 10.56° C | 92% | 1010.2 hPa | 0 mm | - | - | - |
| 1787918403 | 9.44° C | 92% | 1010 hPa | 0 mm | - | - | - |
| 1787918044 | 9.44° C | 92% | 1010 hPa | 0 mm | - | - | - |
* Rain latest hour (hover to see other rain measurements)
** Current wind speed in m/s (hover to see current wind gust speed)